Weather History for KOPM - December, 2013

Change the Weather History Date:

Monday, December 23, 2013

  Actual Average Record
Temperature  
Mean Temperature 55 °F -  
Max Temperature 59 °F - - ()
Min Temperature 51 °F - - ()
Degree Days  
Heating Degree Days 10    
Growing Degree Days 5 (Base 50)    
Moisture  
Dew Point 43 °F    
Average Humidity 64    
Maximum Humidity 77    
Minimum Humidity 48    
Precipitation  
Precipitation 0.00 in - - ()
Sea Level Pressure  
Sea Level Pressure 30.39 in    
Wind  
Wind Speed 12 mph (NNW)    
Max Wind Speed 18 mph    
Max Gust Speed 25 mph    
Visibility 10 miles    
Events      
T = Trace of Precipitation, MM = Missing Value Source: NWS Daily Summary

Daily Weather History Graph

Daily Weather History Graph

Search for Another Location

Airport or City:

Trip Planner

Search our weather history database for the weather conditions in past years. The results will help you decide how hot, cold, wet, or windy it might be!

Date:

Astronomy

Dec. 23, 2013 Rise Set
Actual Time 7:13 AM CST 5:40 PM CST
Civil Twilight 6:47 AM CST 6:06 PM CST
Nautical Twilight 6:18 AM CST 6:35 PM CST
Astronomical Twilight 5:50 AM CST 7:03 PM CST
Moon 11:20 PM CST (12/23) 11:08 AM CST (12/23)
Length of Visible Light 11h 18m
Length of Day
10h 27m
Waning Gibbous, 68% of the Moon is Illuminated
Dec 23
Waning Gibbous
Dec 25
Last Quarter
Jan 1
New
Jan 7
First Quarter
Jan 15
Full

Hourly Weather History & Observations

Time (CST) Temp. Dew Point Humidity Pressure Visibility Wind Dir Wind Speed Gust Speed Precip Events Conditions
12:15 AM 57.2 °F 46.4 °F 67% 30.25 in 10.0 mi NNW 15.0 mph 25.3 mph N/A   Scattered Clouds
12:35 AM 57.2 °F 46.4 °F 67% 30.26 in 10.0 mi North 15.0 mph 25.3 mph N/A   Scattered Clouds
12:55 AM 57.2 °F 46.4 °F 67% 30.27 in 10.0 mi NNW 16.1 mph 21.9 mph N/A   Scattered Clouds
1:15 AM 55.4 °F 46.4 °F 72% 30.28 in 10.0 mi North 11.5 mph 25.3 mph N/A   Mostly Cloudy
1:35 AM 55.4 °F 44.6 °F 67% 30.28 in 10.0 mi North 15.0 mph 24.2 mph N/A   Scattered Clouds
1:55 AM 55.4 °F 44.6 °F 67% 30.29 in 10.0 mi North 13.8 mph 23.0 mph N/A   Scattered Clouds
2:15 AM 55.4 °F 44.6 °F 67% 30.29 in 10.0 mi North 15.0 mph 23.0 mph N/A   Mostly Cloudy
2:35 AM 55.4 °F 44.6 °F 67% 30.29 in 10.0 mi North 12.7 mph 23.0 mph N/A   Scattered Clouds
2:55 AM 55.4 °F 46.4 °F 72% 30.28 in 10.0 mi NNW 13.8 mph 23.0 mph N/A   Mostly Cloudy
3:15 AM 53.6 °F 44.6 °F 72% 30.28 in 10.0 mi North 16.1 mph 24.2 mph N/A   Mostly Cloudy
3:35 AM 53.6 °F 46.4 °F 77% 30.29 in 10.0 mi North 12.7 mph 21.9 mph N/A   Mostly Cloudy
3:55 AM 55.4 °F 46.4 °F 72% 30.29 in 10.0 mi NNW 13.8 mph 21.9 mph N/A   Mostly Cloudy
4:15 AM 53.6 °F 46.4 °F 77% 30.29 in 10.0 mi North 15.0 mph 25.3 mph N/A   Mostly Cloudy
4:35 AM 53.6 °F 44.6 °F 72% 30.29 in 10.0 mi North 15.0 mph 25.3 mph N/A   Mostly Cloudy
4:55 AM 53.6 °F 46.4 °F 77% 30.29 in 10.0 mi North 11.5 mph 21.9 mph N/A   Mostly Cloudy
5:15 AM 53.6 °F 44.6 °F 72% 30.29 in 10.0 mi North 18.4 mph - N/A   Mostly Cloudy
5:35 AM 53.6 °F 44.6 °F 72% 30.30 in 10.0 mi North 11.5 mph 20.7 mph N/A   Mostly Cloudy
5:55 AM 53.6 °F 44.6 °F 72% 30.30 in 10.0 mi North 15.0 mph 21.9 mph N/A   Mostly Cloudy
6:15 AM 53.6 °F 44.6 °F 72% 30.31 in 10.0 mi North 12.7 mph 23.0 mph N/A   Scattered Clouds
6:35 AM 53.6 °F 42.8 °F 67% 30.32 in 10.0 mi North 12.7 mph 18.4 mph N/A   Partly Cloudy
6:55 AM 53.6 °F 44.6 °F 72% 30.34 in 10.0 mi NNW 11.5 mph 19.6 mph N/A   Partly Cloudy
7:15 AM 53.6 °F 44.6 °F 72% 30.34 in 10.0 mi North 9.2 mph 18.4 mph N/A   Scattered Clouds
7:35 AM 51.8 °F 42.8 °F 71% 30.35 in 10.0 mi NNW 12.7 mph 19.6 mph N/A   Partly Cloudy
7:55 AM 51.8 °F 44.6 °F 76% 30.36 in 10.0 mi NNW 12.7 mph 23.0 mph N/A   Partly Cloudy
8:15 AM 51.8 °F 44.6 °F 76% 30.38 in 10.0 mi NNW 15.0 mph - N/A   Mostly Cloudy
8:35 AM 51.8 °F 44.6 °F 76% 30.39 in 10.0 mi NNW 11.5 mph 21.9 mph N/A   Mostly Cloudy
8:55 AM 51.8 °F 44.6 °F 76% 30.40 in 10.0 mi NNW 11.5 mph 19.6 mph N/A   Mostly Cloudy
9:15 AM 51.8 °F 42.8 °F 71% 30.41 in 10.0 mi NNW 12.7 mph - N/A   Mostly Cloudy
9:35 AM 51.8 °F 42.8 °F 71% 30.41 in 10.0 mi NNW 12.7 mph 18.4 mph N/A   Mostly Cloudy
9:55 AM 51.8 °F 42.8 °F 71% 30.42 in 10.0 mi NNW 13.8 mph 20.7 mph N/A   Scattered Clouds
10:15 AM 51.8 °F 42.8 °F 71% 30.43 in 10.0 mi NNW 11.5 mph - N/A   Mostly Cloudy
10:35 AM 51.8 °F 42.8 °F 71% 30.44 in 10.0 mi NNW 11.5 mph - N/A   Scattered Clouds
10:55 AM 51.8 °F 42.8 °F 71% 30.44 in 10.0 mi NNW 11.5 mph - N/A   Scattered Clouds
11:15 AM 53.6 °F 41.0 °F 62% 30.45 in 10.0 mi NNW 12.7 mph - N/A   Scattered Clouds
11:35 AM 51.8 °F 41.0 °F 67% 30.45 in 10.0 mi NNW 8.1 mph 17.3 mph N/A   Scattered Clouds
11:55 AM 53.6 °F 42.8 °F 67% 30.45 in 10.0 mi NNW 10.4 mph - N/A   Mostly Cloudy
12:15 PM 53.6 °F 41.0 °F 62% 30.45 in 10.0 mi NNW 10.4 mph 16.1 mph N/A   Mostly Cloudy
12:35 PM 53.6 °F 41.0 °F 62% 30.44 in 10.0 mi NNW 9.2 mph - N/A   Scattered Clouds
12:55 PM 53.6 °F 41.0 °F 62% 30.44 in 10.0 mi NNW 9.2 mph - N/A   Scattered Clouds
1:15 PM 53.6 °F 41.0 °F 62% 30.43 in 10.0 mi NNW 5.8 mph - N/A   Scattered Clouds
1:35 PM 55.4 °F 41.0 °F 58% 30.42 in 10.0 mi NNW 5.8 mph 12.7 mph N/A   Scattered Clouds
1:55 PM 55.4 °F 41.0 °F 58% 30.42 in 10.0 mi NNW 9.2 mph - N/A   Partly Cloudy
2:15 PM 55.4 °F 42.8 °F 63% 30.41 in 10.0 mi NNW 6.9 mph 13.8 mph N/A   Partly Cloudy
2:35 PM 53.6 °F 41.0 °F 62% 30.42 in 10.0 mi NNW 8.1 mph - N/A   Partly Cloudy
2:55 PM 53.6 °F 41.0 °F 62% 30.41 in 10.0 mi North 8.1 mph 13.8 mph N/A   Partly Cloudy
3:15 PM 53.6 °F 41.0 °F 62% 30.41 in 10.0 mi North 9.2 mph - N/A   Clear
3:35 PM 53.6 °F 41.0 °F 62% 30.41 in 10.0 mi NNW 5.8 mph - N/A   Clear
3:55 PM 53.6 °F 42.8 °F 67% 30.41 in - NNW 8.1 mph - N/A   Clear
4:15 PM 55.4 °F 41.0 °F 58% 30.42 in 10.0 mi NNW 8.1 mph 17.3 mph N/A   Clear
4:35 PM 55.4 °F 41.0 °F 58% 30.42 in 10.0 mi North 8.1 mph - N/A   Clear
4:55 PM 55.4 °F 41.0 °F 58% 30.41 in 10.0 mi North 9.2 mph - N/A   Clear
5:15 PM 55.4 °F 41.0 °F 58% 30.42 in 10.0 mi North 8.1 mph 15.0 mph N/A   Clear
5:35 PM 55.4 °F 41.0 °F 58% 30.42 in 10.0 mi North 8.1 mph 13.8 mph N/A   Clear
5:55 PM 55.4 °F 41.0 °F 58% 30.43 in 10.0 mi North 5.8 mph - N/A   Clear
6:15 PM 55.4 °F 41.0 °F 58% 30.43 in 10.0 mi NNW 6.9 mph - N/A   Clear
6:35 PM 55.4 °F 41.0 °F 58% 30.44 in 10.0 mi North 5.8 mph - N/A   Clear
6:55 PM 55.4 °F 41.0 °F 58% 30.45 in 10.0 mi North 5.8 mph - N/A   Clear
7:15 PM 57.2 °F 41.0 °F 55% 30.45 in 10.0 mi NNW 6.9 mph - N/A   Clear
7:35 PM 57.2 °F 41.0 °F 55% 30.46 in 10.0 mi North 8.1 mph - N/A   Clear
7:55 PM 57.2 °F 42.8 °F 59% 30.47 in 10.0 mi North 9.2 mph - N/A   Clear
8:15 PM 57.2 °F 41.0 °F 55% 30.47 in 10.0 mi North 6.9 mph - N/A   Clear
8:35 PM 57.2 °F 42.8 °F 59% 30.47 in 10.0 mi North 9.2 mph - N/A   Clear
8:55 PM 57.2 °F 42.8 °F 59% 30.47 in 10.0 mi North 5.8 mph 13.8 mph N/A   Partly Cloudy
9:15 PM 57.2 °F 42.8 °F 59% 30.48 in 10.0 mi North 5.8 mph 12.7 mph N/A   Scattered Clouds
9:35 PM 59.0 °F 42.8 °F 55% 30.48 in 10.0 mi North 6.9 mph 12.7 mph N/A   Scattered Clouds
9:55 PM 59.0 °F 41.0 °F 51% 30.48 in 10.0 mi Variable 5.8 mph 17.3 mph N/A   Scattered Clouds
10:15 PM 59.0 °F 41.0 °F 51% 30.49 in 10.0 mi NNE 8.1 mph - N/A   Partly Cloudy
10:35 PM 59.0 °F 41.0 °F 51% 30.49 in 10.0 mi North 8.1 mph - N/A   Clear
10:55 PM 59.0 °F 39.2 °F 48% 30.49 in 10.0 mi Variable 5.8 mph 11.5 mph N/A   Clear
11:15 PM 59.0 °F 41.0 °F 51% 30.49 in 10.0 mi North 9.2 mph - N/A   Clear
11:35 PM 59.0 °F 41.0 °F 51% 30.49 in 10.0 mi NNE 8.1 mph 13.8 mph N/A   Clear
11:55 PM 59.0 °F 39.2 °F 48% 30.48 in 10.0 mi North 8.1 mph - N/A   Clear